Regional Weather Roundup
Issued by NWS

Home | Current Version | Previous Version | Text Only | Print | Product List | Glossary On
Versions: 1 2 3 4 5 6 7 8 9 10 11 12 13 14 15 16 17 18 19 20 21 22 23 24 25 26 27 28 29 30 31 32 33 34 35 36 37 38 39 40 41 42 43 44 45 46 47 48 49 50
000
ASUS44 KFWD 300915
RWRTX
NORTH TEXAS HOURLY WEATHER ROUNDUP
NATIONAL WEATHER SERVICE FORT WORTH TX
400 AM CDT TUE AUG 30 2016

NOTE: "FAIR" INDICATES FEW OR NO CLOUDS BELOW 12,000 FEET WITH NO
SIGNIFICANT WEATHER AND/OR OBSTRUCTIONS TO VISIBILITY.

TXZ118-119-301000-
DALLAS/FORT WORTH METROPLEX

CITY           SKY/WX    TMP DP  RH WIND       PRES   REMARKS
DFW AIRPORT    PTCLDY    76  69  79 N5        30.03F
DALLAS LOVE    PTCLDY    77  71  82 N5        30.03F
FTW MEACHAM    PTCLDY    76  71  85 N5        30.04F
DAL-EXECUTIVE  CLEAR     73  71  93 CALM      30.03F
FTW-ALLIANCE   MOCLDY    71  69  93 CALM      30.04F
FTW-SPINKS     PTCLDY    73  70  89 CALM      30.06S
ARLINGTON      CLEAR     71  69  93 NW3       30.04S
GRAND PRAIRIE  CLEAR     74  72  94 CALM      30.05S
ADDISON        CLEAR     77  71  81 CALM      30.06S
MESQUITE       PTCLDY    72  71  98 CALM      30.03F
LANCASTER      PTCLDY    74  71  90 CALM      30.04S
$$

TXZ091>094-102>105-117-120-121-131>134-301000-
NORTH CENTRAL TEXAS

CITY           SKY/WX    TMP DP  RH WIND       PRES   REMARKS
SHRMAN/DENISON CLEAR     76  73  88 CALM      30.08S
GAINESVILLE      N/A     73  69  89 CALM      30.09S
BOWIE          MOCLDY    74  72  95 CALM      30.09S
BRIDGEPORT     CLEAR     71  71 100 CALM      30.09S
DECATUR        PTCLDY    73  71  93 CALM      30.08S
DENTON         CLEAR     73  72  96 N3        30.05F
MCKINNEY       CLEAR     74  71  91 N3        30.05S
GREENVILLE     PTCLDY    73  72  94 CALM      30.04F
ROCKWALL       PTCLDY    73  72  96 NE5       30.03F
TERRELL        MOCLDY    73  71  93 CALM      30.03F
WAXAHACHIE     PTCLDY    71  71 100 CALM      30.04F
CLEBURNE       CLOUDY    72  72 100 CALM      30.07S
GRANBURY       PTCLDY    74  71  90 CALM      30.07S
$$

TXZ083>090-098>101-113>116-127>130-139>142-154-155-301000-
WESTERN NORTH TEXAS

CITY           SKY/WX    TMP DP  RH WIND       PRES   REMARKS
WICHITA FALLS  CLOUDY    74  68  81 E5        30.07F
WF-KICKAPOO    CLEAR     75  69  80 NE3       30.09S
VERNON         CLEAR     73  66  79 NE3       30.11S
ABILENE        CLOUDY    71  68  90 CALM      30.11R
ABILENE-DYESS  CLOUDY    71  69  92 N2        30.09S
CISCO          CLOUDY    72  70  94 CALM      30.11S
BRECKENRIDGE   PTCLDY    73  70  91 NE3       30.08S
GRAHAM         CLEAR     71  71 100 CALM      30.07S
MINERAL WELLS  PTCLDY    73  71  93 NE5       30.05F
STEPHENVILLE   PTCLDY    72  68  88 CALM      30.10S
COMANCHE       MOCLDY    71  71 100 CALM      30.08F
BROWNWOOD      CLOUDY    72  68  88 CALM      30.08S
COLEMAN        MOCLDY    70  68  94 NE5       30.09S
$$

TXZ143>147-156>162-174-175-301000-
CENTRAL TEXAS

CITY           SKY/WX    TMP DP  RH WIND       PRES   REMARKS
WACO           PTCLDY    73  71  93 N6        30.03S
WACO-MCGREGOR  CLOUDY    72  71  97 N5        30.04R
HILLSBORO      MOCLDY    71  70  96 CALM      30.03F
CORSICANA      PTCLDY    75  71  87 NE3       30.03F
MEXIA          CLOUDY    71  70  98 NW6       30.01F
HEARNE         CLEAR     72  70  96 CALM      30.00F
CAMERON        CLOUDY    73  72  96 CALM      30.00S
TEMPLE         CLOUDY    71  70  96 NW6       30.02F
KILLEEN        CLEAR     71  70  96 CALM      30.03S
KILLEEN-SKYLRK CLOUDY    72  71  97 NW5       30.03F
FORT HOOD      CLOUDY    70  69  95 N5        30.01F
GATESVILLE     CLOUDY    72  72 100 CALM      30.06F
HAMILTON       PTCLDY    73  73 100 CALM      30.07S
LAMPASAS       CLOUDY    73  72  96 N3        30.04F
$$

TXZ095>097-106>112-122>126-135>138-148>153-164>167-301000-
EAST TEXAS

CITY           SKY/WX    TMP DP  RH WIND       PRES   REMARKS
PARIS          CLEAR     73  70  88 NE5       30.05S
SULPHUR SPRNGS CLEAR     75  73  92 N3        30.05F
MOUNT PLEASANT PTCLDY    74  74 100 CALM      30.04F
GILMER         PTCLDY    73  71  95 CALM      30.02F
TYLER          MOCLDY    74  72  93 NW5       30.02F
LONGVIEW       PTCLDY    72  71  97 CALM      30.01F
MARSHALL       CLEAR     70  68  92 CALM      30.03F
ATHENS         LGT RAIN  72  72 100 N6        30.02S
PALESTINE      MOCLDY    73  72  95 NE5       30.02F
JACKSONVILLE   MOCLDY    72  72  99 CALM      30.04F
HENDERSON      CLOUDY    72  72  99 CALM      30.02F
CENTER         CLOUDY    73  72  95 CALM      30.01F
NACOGDOCHES    CLOUDY   N/A N/A N/A NW3       29.98F
LUFKIN         CLOUDY    72  70  93 CALM      29.98F
$$

SUPPLEMENTAL OBSERVATIONS (CENTRAL)

CITY           SKY/WX    TMP DP  RH WIND       PRES   REMARKS
DENISON DAM      N/A     75  70  83 CALM        N/A
CADDO GRASSLND   N/A     72  68  88 CALM        N/A
PAT MAYSE LAKE   N/A     73  72  94 N2          N/A
GREENVILLE       N/A     73  70  88 NW2         N/A
CEDAR HILL       N/A     70  68  94 CALM        N/A
ATHENS           N/A     73  64  73 W1          N/A
MCGREGOR         N/A     72  70  94 NW1         N/A
TEMPLE           N/A     73  70  88 CALM        N/A
$$

SUPPLEMENTAL OBSERVATIONS (WEST)

CITY           SKY/WX    TMP DP  RH WIND       PRES   REMARKS
MILLERS CREEK    N/A     73  68  83 N2          N/A
POSSUM KINGDOM   N/A     73  70  88 E3          N/A
LBJ GRASSLAND    N/A     73  72  94 NE1         N/A
GRANBURY         N/A     73  70  88 CALM        N/A
HAMBY            N/A     70  66  88 N2          N/A
IVIE RESERVOIR   N/A     70  64  83 CALM        N/A
COLORADO BEND    N/A     70  66  88 NE2         N/A
$$

SUPPLEMENTAL OBSERVATIONS (EAST)

CITY           SKY/WX    TMP DP  RH WIND       PRES   REMARKS
CLARKSVILLE      N/A     73  70  88 CALM        N/A
TEXARKANA        N/A     73  72  94 CALM        N/A
LINDEN           N/A     73  72  94 CALM        N/A
GILMER           N/A     73  70  88 N1          N/A
HENDERSON        N/A     72  68  88 CALM        N/A
LUFKIN           N/A     72  70  94 MISG        N/A
S SABINE NF      N/A     72  70  94 CALM        N/A
$$

SUPPLEMENTAL OBSERVATIONS ARE A COLLECTION OF AUTOMATED INSTRUMENTS
THAT ARE MAINTAINED BY A VARIETY OF FEDERAL AND STATE AGENCIES.
CERTAIN ELEMENTS...SUCH AS HUMIDITY VALUES AND SUSTAINED WIND
SPEEDS...MAY BE APPROXIMATED.





USA.gov is the U.S. government's official web portal to all federal, state and local government web resources and services.